Stations météo

réclame
Mon MeteoGroup
Asturias/Aviles, Espagne (8011): Température de l'air & dewpoint: 10.12.2017 12:00:00 - 16.12.2017 12:00:00 (CET)Asturias/Aviles, Espagne (8011): Vitesse du vent & gusts: 10.12.2017 12:00:00 - 16.12.2017 12:00:00 (CET)Asturias/Aviles, Espagne (8011): Direction du vent: 10.12.2017 12:00:00 - 16.12.2017 12:00:00 (CET)Asturias/Aviles, Espagne (8011): reduced air pressure: 10.12.2017 12:00:00 - 16.12.2017 12:00:00 (CET)Asturias/Aviles, Espagne (8011): visibility: 10.12.2017 12:00:00 - 16.12.2017 12:00:00 (CET)Asturias/Aviles, Espagne (8011): Quantités de précipitations: 10.12.2017 12:00:00 - 16.12.2017 12:00:00 (CET)
Date & Time tt [°C] td [°C] ff [km/h] ff [knt] fx [km/h] fx [knt] dd ppp [hPa] vv [km] rr [mm]
16.12.2017 12:00:00 8,9 4,7 4 2 - - SSW 1027,0 - -
16.12.2017 11:00:00 9,2 5,7 8 4 - - WSW 1025,9 - -
16.12.2017 10:00:00 6,8 4,9 4 2 - - SW 1025,2 12 -
16.12.2017 09:00:00 6,1 4,4 8 4 - - SW 1024,3 - -
16.12.2017 08:00:00 6,3 4,5 4 2 - - SW 1023,6 - -
16.12.2017 07:00:00 6,8 5,1 8 4 - - SW 1022,7 20 -
16.12.2017 06:00:00 7,5 5,3 8 4 - - WSW 1022,3 - -
16.12.2017 05:00:00 8,3 5,4 16 9 - - W 1022,0 - -
16.12.2017 04:00:00 7,9 4,8 13 7 - - W 1021,6 - -
16.12.2017 03:00:00 9,2 4,8 8 4 - - WNW 1021,0 - -
16.12.2017 02:00:00 6,8 4,9 0 0 - - N 1020,9 - -
16.12.2017 01:00:00 8,9 5,0 5 3 - - NW 1020,6 - -
16.12.2017 00:00:00 10,0 5,1 11 6 - - NW 1020,1 - -
15.12.2017 23:00:00 8,2 5,7 8 4 - - SW 1019,8 - -
15.12.2017 22:00:00 8,1 5,9 22 12 - - WNW 1019,3 5 -
15.12.2017 21:00:00 9,9 4,6 13 7 - - NW 1018,5 - -
15.12.2017 20:00:00 8,6 6,3 16 9 - - WSW 1017,8 - -
15.12.2017 19:00:00 9,5 5,9 21 11 - - W 1017,1 - -
15.12.2017 18:00:00 8,6 6,0 21 11 - - W 1016,7 - -
15.12.2017 17:00:00 9,5 6,0 21 11 - - W 1016,1 - -
15.12.2017 16:00:00 9,9 5,3 22 12 - - W 1015,4 9 -
15.12.2017 15:00:00 11,2 6,9 24 13 - - W 1014,9 - -
15.12.2017 14:00:00 10,4 5,8 18 10 - - WNW 1015,3 - -
15.12.2017 13:00:00 10,7 6,4 24 13 - - WNW 1015,5 9 -
15.12.2017 12:00:00 10,4 6,0 18 10 - - W 1015,8 - -
15.12.2017 11:00:00 10,3 6,1 13 7 - - W 1015,5 - -
15.12.2017 10:00:00 9,2 5,9 15 8 - - W 1015,2 8 -
15.12.2017 09:00:00 9,9 4,6 18 10 - - NW 1014,7 - -
15.12.2017 08:00:00 9,9 5,8 18 10 - - NW 1014,1 - -
15.12.2017 07:00:00 8,8 7,1 21 11 - - W 1013,9 4,0 -
15.12.2017 06:00:00 8,1 7,0 18 10 - - W 1013,5 - -
15.12.2017 05:00:00 8,1 7,0 22 12 - - NW 1014,0 - -
15.12.2017 04:00:00 10,8 5,9 26 14 - - W 1012,7 - -
15.12.2017 03:00:00 12,0 3,7 31 17 - - W 1012,4 - -
15.12.2017 02:00:00 11,7 3,6 34 18 - - W 1012,8 - -
15.12.2017 01:00:00 11,8 5,0 29 16 - - W 1013,7 - -
15.12.2017 00:00:00 11,5 5,4 35 19 - - W 1013,7 - -
14.12.2017 23:00:00 12,0 3,3 42 23 - - WSW 1013,8 - -
14.12.2017 22:00:00 11,8 3,8 34 18 - - W 1014,1 15 -
14.12.2017 21:00:00 12,3 4,9 31 17 - - W 1014,5 - -
14.12.2017 20:00:00 12,3 6,7 24 13 - - W 1014,2 - -
14.12.2017 19:00:00 12,2 6,0 29 16 - - W 1014,0 15 -
14.12.2017 18:00:00 12,5 9,9 35 19 - - W 1014,2 - -
14.12.2017 17:00:00 12,7 10,8 29 16 - - WNW 1014,4 - -
14.12.2017 16:00:00 12,6 11,3 22 12 - - WNW 1014,8 5 -
14.12.2017 15:00:00 12,2 11,3 22 12 - - WNW 1015,2 - -
14.12.2017 14:00:00 12,0 11,3 29 16 - - WNW 1015,9 - -
14.12.2017 13:00:00 12,9 11,6 21 11 - - WNW 1016,7 7 -
14.12.2017 12:00:00 13,6 10,9 16 9 - - W 1017,3 - -
14.12.2017 11:00:00 12,5 10,7 13 7 - - W 1017,5 - -
14.12.2017 10:00:00 11,4 10,6 13 7 - - W 1018,0 6 -
14.12.2017 09:00:00 11,1 10,6 16 9 - - W 1018,0 - -
14.12.2017 08:00:00 10,7 9,9 8 4 - - WSW 1018,1 - -
14.12.2017 07:00:00 10,8 10,0 9 5 - - WSW 1018,1 4,0 0,9
14.12.2017 06:00:00 11,1 10,3 18 10 - - W 1018,8 - -
14.12.2017 05:00:00 11,0 10,0 24 13 - - W 1019,1 - -
14.12.2017 04:00:00 12,2 11,6 22 12 - - WNW 1019,3 - -
14.12.2017 03:00:00 12,4 11,4 29 16 - - WNW 1019,2 - -
14.12.2017 02:00:00 13,1 11,3 34 18 - - WNW 1019,4 - -
14.12.2017 01:00:00 13,2 11,3 34 18 - - WNW 1020,0 - -
14.12.2017 00:00:00 13,0 12,5 34 18 - - WNW 1019,7 - -
13.12.2017 23:00:00 12,5 12,0 41 22 - - WNW 1019,5 - -
13.12.2017 22:00:00 13,1 12,3 37 20 - - WNW 1019,5 2,0 -
13.12.2017 21:00:00 15,2 11,9 31 17 - - W 1018,9 - -
13.12.2017 20:00:00 15,9 10,4 21 11 - - W 1018,3 - -
13.12.2017 19:00:00 15,9 10,4 24 13 - - WSW 1018,0 30 -
13.12.2017 18:00:00 16,4 9,8 28 15 - - WSW 1017,7 - -
13.12.2017 17:00:00 16,2 9,4 24 13 - - WSW 1017,4 - -
13.12.2017 16:00:00 16,3 9,2 28 15 - - WSW 1017,4 35 -
13.12.2017 15:00:00 16,2 8,5 28 15 - - WSW 1017,3 - -
13.12.2017 14:00:00 16,3 8,0 29 16 - - WSW 1017,5 - -
13.12.2017 13:00:00 16,0 7,0 26 14 - - WSW 1018,5 40 -
13.12.2017 12:00:00 15,7 6,8 21 11 - - SW 1019,3 - -
13.12.2017 11:00:00 15,1 6,5 21 11 - - SW 1019,0 - -
13.12.2017 10:00:00 14,1 6,6 22 12 - - WSW 1019,0 40 -
13.12.2017 09:00:00 12,2 7,0 15 8 - - WSW 1019,4 - -
13.12.2017 08:00:00 11,2 7,5 8 4 - - W 1019,6 - -
13.12.2017 07:00:00 10,8 7,0 9 5 - - WNW 1019,8 20 -
13.12.2017 06:00:00 11,8 7,9 15 8 - - WNW 1019,7 - -
13.12.2017 05:00:00 11,5 6,6 15 8 - - WSW 1019,3 - -
13.12.2017 04:00:00 11,0 6,7 21 11 - - SW 1019,0 - -
13.12.2017 03:00:00 10,9 7,9 18 10 - - WSW 1019,9 - -
13.12.2017 02:00:00 10,9 6,6 18 10 - - SSW 1019,8 - -
13.12.2017 01:00:00 11,0 5,1 22 12 - - SSW 1019,4 - -
13.12.2017 00:00:00 10,6 4,5 22 12 - - SW 1019,9 - -
12.12.2017 23:00:00 9,9 3,9 18 10 - - SW 1020,4 - -
12.12.2017 22:00:00 9,0 3,7 21 11 - - SSW 1020,7 20 -
12.12.2017 21:00:00 8,6 3,8 16 9 - - SW 1020,6 - -
12.12.2017 20:00:00 8,7 4,1 16 9 - - SW 1020,2 - -
12.12.2017 19:00:00 9,2 4,7 16 9 - - SW 1020,5 20 -
12.12.2017 18:00:00 9,0 5,2 11 6 - - SW 1020,3 - -
12.12.2017 17:00:00 9,1 5,5 13 7 - - SW 1019,7 - -
12.12.2017 16:00:00 9,1 5,2 15 8 - - SSW 1019,2 30 -
12.12.2017 15:00:00 9,6 5,3 18 10 - - SSW 1018,9 - -
12.12.2017 14:00:00 9,5 5,5 16 9 - - SW 1019,2 - -
12.12.2017 13:00:00 9,3 5,5 16 9 - - SW 1018,9 30 -
12.12.2017 12:00:00 7,9 4,7 16 9 - - SW 1018,8 - -
12.12.2017 11:00:00 6,5 4,7 24 13 - - SW 1018,4 - -
12.12.2017 10:00:00 5,6 4,2 21 11 - - SW 1017,9 - -
12.12.2017 09:00:00 5,3 3,5 22 12 - - SW 1017,1 - -
12.12.2017 08:00:00 5,3 3,8 18 10 - - SSW 1016,3 - -
12.12.2017 07:00:00 5,2 3,8 16 9 - - SW 1015,5 9 -
12.12.2017 06:00:00 4,9 3,4 18 10 - - SW 1014,4 - -
12.12.2017 05:00:00 5,4 3,6 15 8 - - WSW 1014,2 - -
12.12.2017 04:00:00 5,4 3,6 11 6 - - SW 1013,3 - -
12.12.2017 03:00:00 5,6 4,1 18 10 - - WSW 1012,2 - -
12.12.2017 02:00:00 6,7 4,2 11 6 - - SW 1011,7 - -
12.12.2017 01:00:00 6,1 4,3 15 8 - - WSW 1011,3 - -
12.12.2017 00:00:00 6,4 3,5 11 6 - - SW 1010,3 - -
11.12.2017 23:00:00 7,8 2,8 11 6 - - W 1009,5 - -
11.12.2017 22:00:00 6,8 3,6 4 2 - - S 1007,9 15 -
11.12.2017 21:00:00 8,7 3,4 21 11 - - W 1006,7 - -
11.12.2017 20:00:00 9,4 2,9 18 10 - - NW 1005,3 - -
11.12.2017 19:00:00 9,5 3,5 22 12 - - NW 1004,1 15 -
11.12.2017 18:00:00 9,1 1,7 26 14 - - WNW 1002,7 - -
11.12.2017 17:00:00 8,9 -0,7 28 15 - - WNW 1001,5 - -
11.12.2017 16:00:00 8,9 3,0 29 16 - - NW 999,7 6 -
11.12.2017 15:00:00 9,3 3,2 34 18 - - NW 998,1 - -
11.12.2017 14:00:00 7,5 5,8 22 12 - - WNW 997,0 - -
11.12.2017 13:00:00 5,9 4,4 18 10 - - SW 995,6 - -
11.12.2017 12:00:00 6,7 5,0 28 15 - - W 994,8 - -
11.12.2017 11:00:00 6,6 4,9 18 10 - - WSW 993,3 - -
11.12.2017 10:00:00 6,6 4,4 21 11 - - SW 991,7 5 -
11.12.2017 09:00:00 7,3 3,8 18 10 - - WSW 990,5 - -
11.12.2017 08:00:00 7,5 3,3 21 11 - - WSW 989,6 - -
11.12.2017 07:00:00 7,6 3,6 18 10 - - WSW 989,1 12 -
11.12.2017 06:00:00 6,8 3,8 22 12 - - SW 988,0 - -
11.12.2017 05:00:00 7,5 5,0 21 11 - - SW 987,3 - -
11.12.2017 04:00:00 7,8 5,9 26 14 - - W 987,1 - -
11.12.2017 03:00:00 8,8 6,4 24 13 - - W 986,0 - -
11.12.2017 02:00:00 7,8 6,1 37 20 - - W 985,2 - -
11.12.2017 01:00:00 7,9 5,7 22 12 - - WSW 984,7 - -
11.12.2017 00:00:00 8,7 6,3 24 13 - - WSW 984,6 - -
10.12.2017 23:00:00 9,7 7,5 28 15 94 51 W 983,9 - -
10.12.2017 22:00:00 10,2 9,6 65 35 - - WNW 983,4 2,0 -
10.12.2017 21:00:00 13,8 11,5 18 10 - - SW 982,5 - -
10.12.2017 20:00:00 13,4 11,6 22 12 - - SW 985,3 - -
10.12.2017 19:00:00 12,5 10,8 16 9 - - S 987,8 6 -
10.12.2017 18:00:00 12,2 10,1 9 5 - - WSW 991,1 - -
10.12.2017 17:00:00 12,0 10,2 2 1 - - SSW 994,3 - -
10.12.2017 16:00:00 12,8 11,7 15 8 - - SW 997,5 4,5 -
10.12.2017 15:00:00 12,6 11,7 15 8 - - W 998,6 - -
10.12.2017 14:00:00 12,7 11,8 34 18 - - WNW 1000,4 - -
10.12.2017 13:00:00 12,1 11,8 37 20 - - WNW 1002,9 1,0 -
10.12.2017 12:00:00 14,9 13,3 31 17 - - W 1003,4 - -

tt = Température de l'air
td = dewpoint
ff = Vitesse du vent
fx = gusts
dd = Direction du vent
ppp = reduced air pressure
vv = visibility
rr = Quantités de précipitations

stations d'obs. à proximité